Home   Weather   Alexandria   Past weeks

Flag for Egypt Past Weather in Alexandria, Egypt — Yesterday and Last 2 Weeks

Now
61 °F

Partly cloudy.


Feels Like: 61 °F
Forecast: 57 / 71 °F
Wind: 7 mph from East

Location: Alexandria / Nouzha

Current Time: Feb 27, 2017 at 11:18:26 pm

Latest Report: Feb 27, 2017 at 10:00 pm


Visibility: N/A

Pressure: 29.86 "Hg

Humidity: 77%

Dew Point: 54 °F

Location of AlexandriaLocation

Past Weather in Alexandria — Graph

°F

Alexandria Temperature Yesterday

Maximum temperature yesterday: 70 °F (at 12:00 pm)
Minimum temperature yesterday: 50 °F (at 6:00 am)
Average temperature yesterday: 60 °F

High & Low Weather Summary for the Past Weeks

 TemperatureHumidityPressure
High72 °F (Feb 27, 1:00 pm)100% (Feb 14, 12:00 pm)30.33 "Hg (Feb 14, 12:00 pm)
Low45 °F (Feb 19, 7:00 am)34% (Feb 17, 3:00 pm)29.86 "Hg (Feb 16, 12:00 pm)
Average58 °F64%30.15 "Hg
* Reported Feb 12 10:00 pm — Feb 27 10:00 pm, Alexandria, Weather by CustomWeather, © 2017

Note: Actual official high and low records may vary slightly from our data, if they occured in-between our weather recording intervals... More about our weather records

Advertising

Alexandria Weather History for the Previous 24 Hours

Scroll right to see more
 ConditionsComfort  
Time TempWeatherWind HumidityBarometerVisibility
10:00 pm
Mon, Feb 27
61 °FPartly cloudy.7 mph77%29.86 "HgN/A
9:00 pm61 °FPartly cloudy.8 mph83%29.86 "HgN/A
8:00 pm61 °FPartly cloudy.13 mph83%29.86 "HgN/A
7:00 pm63 °FPartly cloudy.14 mph77%29.86 "HgN/A
5:00 pm64 °FBroken clouds.7 mph73%29.86 "Hg4 mi
4:00 pm66 °FBroken clouds.8 mph68%29.86 "Hg4 mi
3:00 pm68 °FClear.9 mph64%29.86 "Hg4 mi
2:00 pm72 °FClear.9 mph53%29.89 "Hg5 mi
1:00 pm72 °FSunny.7 mph44%29.92 "Hg10 mi
12:00 pm70 °FSunny.9 mph46%29.95 "Hg10 mi
11:00 am68 °FSunny.9 mph60%29.95 "Hg10 mi
10:00 am64 °FScattered clouds.7 mph64%29.98 "HgN/A
9:00 am61 °FBroken clouds.8 mph77%30.01 "Hg5 mi
8:00 am57 °FBroken clouds.7 mph82%30.01 "Hg4 mi
7:00 am55 °FClear.5 mph88%30.01 "Hg4 mi
6:00 am55 °FClear.5 mph88%30.01 "Hg10 mi
5:00 am55 °FClear.5 mph88%30.01 "Hg10 mi
4:00 am57 °FClear.3 mph82%30.04 "Hg10 mi
3:00 am57 °FClear.2 mph82%30.04 "Hg10 mi
2:00 am57 °FClear.3 mph82%30.04 "Hg10 mi
1:00 am59 °FClear.7 mph77%30.07 "Hg10 mi
12:00 am59 °FClear.10 mph77%30.07 "Hg10 mi
11:00 pm
Sun, Feb 26
59 °FClear.8 mph77%30.07 "Hg10 mi
Weather by CustomWeather, © 2017

See weather overviewHow to use our weather pages